GW1714 Weather Reports


Display with metric or nautical units.
time (UTC)temp
F
wind
direction
speed
MPH
gust
MPH
rain 1hr
in
rain 24hr
in
rain mn
in
humidity
%
barometer
mb
20260905115016 73 7 1.0 1.0 0.00 0.00 0.00 95 1033.7
20260905114515 73 6 1.0 2.0 0.00 0.00 0.00 94 1033.9
20260905114014 73 348 0.0 2.0 0.00 0.00 0.00 94 1033.8
20260905113510 73 8 0.0 1.0 0.00 0.00 0.00 93 1033.7
20260905113005 73 0 0.0 0.0 0.00 0.00 0.00 94 1033.6
20260905112500 73 0 0.0 0.0 0.00 0.00 0.00 94 1033.7
20260905111955 73 0 0.0 1.0 0.00 0.00 0.00 94 1033.8
20260905111449 74 7 1.0 2.0 0.00 0.00 0.00 93 1033.6
20260905110943 74 99 0.0 0.0 0.00 0.00 0.00 93 1033.5
20260905110443 73 0 0.0 0.0 0.00 0.00 0.00 93 1033.4
20260905105937 73 0 1.0 2.0 0.00 0.00 0.00 93 1033.4
20260905105432 73 0 2.0 3.0 0.00 0.00 0.00 93 1033.4
20260905104931 74 0 2.0 3.0 0.00 0.00 0.00 92 1033.3
20260905104427 75 15 2.0 3.0 0.00 0.00 0.00 90 1033.3
20260905103922 75 337 0.0 2.0 0.00 0.00 0.00 89 1033.1
20260905103418 75 172 0.0 0.0 0.00 0.00 0.00 90 1033.2
20260905102913 75 157 0.0 0.0 0.00 0.00 0.00 89 1033.0
20260905102409 76 7 0.0 0.0 0.00 0.00 0.00 87 1032.9
20260905101904 76 7 0.0 0.0 0.00 0.00 0.00 86 1033.0
20260905101402 76 7 0.0 0.0 0.00 0.00 0.00 87 1032.5
20260905100857 76 7 0.0 0.0 0.00 0.00 0.00 87 1032.8
20260905100353 76 0 0.0 0.0 0.00 0.00 0.00 87 1032.8
20260905095852 76 0 0.0 0.0 0.00 0.00 0.00 87 1032.5
20260905095347 76 0 0.0 0.0 0.00 0.00 0.00 86 1032.6
20260905094841 76 0 0.0 1.0 0.00 0.00 0.00 86 1032.5
20260905094337 76 352 0.0 2.0 0.00 0.00 0.00 86 1032.6
20260905093836 76 345 2.0 2.0 0.00 0.00 0.00 86 1032.5
20260905093332 77 0 1.0 1.0 0.00 0.00 0.00 84 1032.5
20260905092828 76 7 0.0 1.0 0.00 0.00 0.00 85 1032.5
20260905092327 77 337 0.0 0.0 0.00 0.00 0.00 85 1032.6
20260905091822 77 337 0.0 0.0 0.00 0.00 0.00 83 1032.4
20260905091322 77 353 0.0 2.0 0.00 0.00 0.00 83 1032.8
20260905090820 77 349 2.0 2.0 0.00 0.00 0.00 84 1032.7
20260905090317 77 346 1.0 1.0 0.00 0.00 0.00 83 1032.8
20260905085810 77 0 0.0 0.0 0.00 0.00 0.00 82 1032.7
20260905085306 78 0 0.0 0.0 0.00 0.00 0.00 82 1032.7
20260905084759 78 337 0.0 0.0 0.00 0.00 0.00 82 1032.8
20260905084254 78 345 1.0 1.0 0.00 0.00 0.00 82 1032.9
20260905083749 78 354 1.0 1.0 0.00 0.00 0.00 82 1032.6
20260905083244 78 0 0.0 0.0 0.00 0.00 0.00 82 1032.8
20260905082739 77 353 0.0 2.0 0.00 0.00 0.00 84 1032.8
20260905082235 77 0 0.0 2.0 0.00 0.00 0.00 84 1032.9
20260905081730 77 342 1.0 2.0 0.00 0.00 0.00 85 1032.9
20260905081225 77 339 2.0 2.0 0.00 0.00 0.00 86 1033.2
20260905080724 77 332 2.0 2.0 0.00 0.00 0.00 85 1033.2
20260905080219 77 342 1.0 2.0 0.00 0.00 0.00 85 1033.2
20260905075718 77 339 2.0 2.0 0.00 0.00 0.00 85 1033.3
20260905075217 77 348 0.0 2.0 0.00 0.00 0.00 85 1033.3
20260905074716 77 340 1.0 2.0 0.00 0.00 0.00 85 1033.2
20260905074213 78 0 1.0 2.0 0.00 0.00 0.00 84 1033.4
20260905073708 78 0 0.0 0.0 0.00 0.00 0.00 82 1033.4
20260905073203 78 0 0.0 1.0 0.00 0.00 0.00 83 1033.5
20260905072703 77 353 0.0 2.0 0.00 0.00 0.00 86 1033.7
20260905072158 77 339 2.0 2.0 0.00 0.00 0.00 89 1033.4
20260905071654 76 331 0.0 2.0 0.00 0.00 0.00 90 1033.3
20260905071150 77 346 1.0 2.0 0.00 0.00 0.00 89 1033.4
20260905070645 77 342 1.0 2.0 0.00 0.00 0.00 89 1033.6
20260905070141 77 353 1.0 2.0 0.00 0.00 0.00 89 1033.5
20260905065639 77 180 0.0 0.0 0.00 0.00 0.00 89 1033.4
20260905065134 77 352 0.0 0.0 0.00 0.00 0.00 87 1033.6
20260905064629 77 352 0.0 1.0 0.00 0.00 0.00 89 1033.5
20260905064125 77 352 0.0 2.0 0.00 0.00 0.00 88 1033.6
20260905063623 78 0 0.0 0.0 0.00 0.00 0.00 87 1033.8
20260905063119 78 0 0.0 0.0 0.00 0.00 0.00 85 1033.8
20260905062615 78 337 0.0 0.0 0.00 0.00 0.00 85 1033.7
20260905062114 78 337 0.0 1.0 0.00 0.00 0.00 86 1033.8
20260905061608 78 345 0.0 0.0 0.00 0.00 0.00 86 1033.6
20260905061103 78 0 0.0 1.0 0.00 0.00 0.00 86 1033.7
20260905060559 78 354 0.0 1.0 0.00 0.00 0.00 86 1033.9
20260905060055 79 349 0.0 2.0 0.00 0.00 0.00 86 1033.9
20260905055553 79 0 0.0 1.0 0.00 0.00 0.00 84 1033.7
20260905055049 78 0 0.0 0.0 0.00 0.00 0.00 86 1033.8
20260905054544 78 0 0.0 1.0 0.00 0.00 0.00 87 1033.8
20260905054039 78 0 0.0 2.0 0.00 0.00 0.00 88 1033.7
20260905053539 78 0 0.0 2.0 0.00 0.00 0.00 88 1033.7
20260905053034 78 353 1.0 3.0 0.00 0.00 0.00 88 1033.8
20260905052533 78 0 0.0 3.0 0.00 0.00 0.00 87 1033.9
20260905052028 79 352 2.0 3.0 0.00 0.00 0.00 86 1033.9
20260905051524 79 353 1.0 2.0 0.00 0.00 0.00 85 1033.6
20260905051021 79 0 0.0 1.0 0.00 0.00 0.00 84 1033.6
20260905050516 80 14 0.0 0.0 0.00 0.00 0.00 83 1033.7
20260905050013 80 14 0.0 1.0 0.00 0.00 0.00 82 1033.9
20260905045507 80 23 1.0 1.0 0.00 0.00 0.00 82 1033.8
20260905044956 80 345 1.0 2.0 0.00 0.00 0.00 81 1033.8
20260905044451 80 0 0.0 0.0 0.00 0.00 0.00 81 1033.6
20260905043945 80 340 0.0 2.0 0.00 0.00 0.00 81 1033.8
20260905043444 81 346 0.0 1.0 0.00 0.00 0.00 80 1033.9
20260905042939 80 352 0.0 0.0 0.00 0.00 0.00 80 1033.6
20260905042433 80 352 0.0 0.0 0.00 0.00 0.00 82 1033.7
20260905041928 80 0 0.0 2.0 0.00 0.00 0.00 82 1033.5
20260905041419 81 331 2.0 2.0 0.00 0.00 0.00 78 1033.6
20260905040918 82 15 0.0 0.0 0.00 0.00 0.00 75 1033.6
20260905040413 82 15 0.0 0.0 0.00 0.00 0.00 75 1033.7
20260905035912 83 15 0.0 0.0 0.00 0.00 0.00 73 1033.6
20260905035407 83 23 0.0 2.0 0.00 0.00 0.00 73 1033.5
20260905034904 83 15 0.0 2.0 0.00 0.00 0.00 74 1033.6
20260905034359 82 0 0.0 2.0 0.00 0.00 0.00 76 1033.5
20260905033858 81 337 2.0 2.0 0.00 0.00 0.00 79 1033.6
20260905033353 81 345 1.0 1.0 0.00 0.00 0.00 79 1033.7
20260905032852 81 172 0.0 0.0 0.00 0.00 0.00 79 1033.8
20260905032348 82 157 2.0 2.0 0.00 0.00 0.00 79 1033.7
20260905031843 83 0 0.0 2.0 0.00 0.00 0.00 73 1033.6
20260905031339 82 4 2.0 2.0 0.00 0.00 0.00 75 1033.8
20260905030834 81 337 2.0 2.0 0.00 0.00 0.00 80 1033.8
20260905030330 81 345 2.0 3.0 0.00 0.00 0.00 81 1033.6
20260905025829 82 349 2.0 2.0 0.00 0.00 0.00 78 1033.8
20260905025324 83 345 0.0 2.0 0.00 0.00 0.00 76 1034.0
20260905024821 83 105 0.0 0.0 0.00 0.00 0.00 75 1034.0
20260905024316 83 0 0.0 0.0 0.00 0.00 0.00 75 1034.0
20260905023811 83 0 0.0 0.0 0.00 0.00 0.00 75 1034.0
20260905023306 83 0 0.0 0.0 0.00 0.00 0.00 75 1034.0
20260905022805 83 355 2.0 3.0 0.00 0.00 0.00 75 1033.9
20260905022301 84 172 0.0 0.0 0.00 0.00 0.00 72 1034.0
20260905021801 84 172 0.0 0.0 0.00 0.00 0.00 71 1034.0
20260905021256 85 172 0.0 0.0 0.00 0.00 0.00 71 1034.2
20260905020750 84 172 0.0 0.0 0.00 0.00 0.00 71 1034.2
20260905020245 84 172 0.0 0.0 0.00 0.00 0.00 71 1034.3
20260905015744 84 172 0.0 0.0 0.00 0.00 0.00 72 1034.2
20260905015238 83 172 0.0 0.0 0.00 0.00 0.00 74 1033.9
20260905014737 82 172 0.0 0.0 0.00 0.00 0.00 76 1034.2
20260905014233 82 172 0.0 0.0 0.00 0.00 0.00 80 1034.0
20260905013728 83 172 0.0 0.0 0.00 0.00 0.00 79 1034.2
20260905013225 83 172 0.0 1.0 0.00 0.00 0.00 78 1034.0
20260905012720 83 173 0.0 0.0 0.00 0.00 0.00 75 1034.3
20260905012215 84 180 1.0 2.0 0.00 0.00 0.00 73 1034.3
20260905011712 86 0 0.0 1.0 0.00 0.00 0.00 70 1034.0
20260905011208 86 353 1.0 1.0 0.00 0.00 0.00 68 1034.0
20260905010702 85 352 0.0 1.0 0.00 0.00 0.00 69 1034.0
20260905010157 85 352 0.0 2.0 0.00 0.00 0.00 73 1033.9
20260905005654 86 354 1.0 2.0 0.00 0.00 0.00 69 1034.0
20260905005149 86 352 1.0 1.0 0.00 0.00 0.00 67 1034.0
20260905004643 86 0 1.0 1.0 0.00 0.00 0.00 66 1034.3
20260905004138 85 0 1.0 1.0 0.00 0.00 0.00 67 1034.2
20260905003634 86 355 2.0 2.0 0.00 0.00 0.00 67 1034.0
20260905003130 86 356 2.0 2.0 0.00 0.00 0.00 67 1034.2
20260905002625 86 0 1.0 2.0 0.00 0.00 0.00 69 1034.0
20260905002119 86 0 1.0 1.0 0.00 0.00 0.00 70 1034.0
20260905001615 85 0 1.0 2.0 0.00 0.00 0.00 71 1034.0
20260905001109 86 0 1.0 2.0 0.00 0.00 0.00 70 1033.9
20260905000604 86 354 1.0 2.0 0.00 0.00 0.00 70 1034.2
20260905000100 86 5 2.0 2.0 0.00 0.00 0.00 69 1034.2
20260904235600 86 0 0.0 2.0 0.00 0.00 0.00 69 1034.3
20260904235059 87 0 2.0 2.0 0.00 0.00 0.00 69 1034.2
20260904234554 87 0 1.0 2.0 0.00 0.00 0.00 69 1033.9
20260904234050 88 0 0.0 1.0 0.00 0.00 0.00 71 1034.0
20260904233545 88 0 0.0 0.0 0.00 0.00 0.00 71 1034.2
20260904233041 88 0 0.0 0.0 0.00 0.00 0.00 70 1033.9
20260904232538 90 355 2.0 2.0 0.00 0.00 0.00 68 1033.6
20260904232034 91 352 0.0 1.0 0.00 0.00 0.00 63 1033.8
20260904231529 91 180 0.0 0.0 0.00 0.00 0.00 62 1033.8
20260904231024 92 180 0.0 0.0 0.00 0.00 0.00 61 1033.5
20260904230523 93 180 0.0 0.0 0.00 0.00 0.00 58 1033.5
20260904230019 95 180 0.0 0.0 0.00 0.00 0.00 53 1033.7
20260904225517 98 180 0.0 0.0 0.00 0.00 0.00 49 1033.4
20260904225016 97 180 0.0 0.0 0.00 0.00 0.00 50 1033.3
20260904224511 97 246 0.0 0.0 0.00 0.00 0.00 50 1033.4
20260904224006 98 246 0.0 0.0 0.00 0.00 0.00 49 1033.3
20260904223505 97 246 0.0 0.0 0.00 0.00 0.00 49 1033.2
20260904223001 98 246 0.0 0.0 0.00 0.00 0.00 47 1033.1
20260904222456 100 0 0.0 0.0 0.00 0.00 0.00 46 1033.0
20260904221950 99 0 0.0 0.0 0.00 0.00 0.00 47 1033.1
20260904221444 100 0 0.0 0.0 0.00 0.00 0.00 47 1033.3
20260904220940 99 270 0.0 0.0 0.00 0.00 0.00 47 1033.2
20260904220439 100 246 0.0 2.0 0.00 0.00 0.00 46 1033.4
20260904215935 99 254 0.0 1.0 0.00 0.00 0.00 48 1033.2
20260904215430 100 270 0.0 1.0 0.00 0.00 0.00 46 1033.3
20260904214926 98 6 1.0 2.0 0.00 0.00 0.00 47 1033.3
20260904214421 98 165 1.0 2.0 0.00 0.00 0.00 48 1033.4
20260904213921 98 163 2.0 2.0 0.00 0.00 0.00 48 1033.4
20260904213415 97 172 2.0 3.0 0.00 0.00 0.00 48 1033.4
20260904212911 99 166 2.0 2.0 0.00 0.00 0.00 46 1033.3
20260904212410 98 162 2.0 2.0 0.00 0.00 0.00 47 1033.3
20260904211906 97 165 3.0 3.0 0.00 0.00 0.00 47 1033.5
20260904211401 98 156 2.0 3.0 0.00 0.00 0.00 46 1033.3
20260904210856 99 164 2.0 3.0 0.00 0.00 0.00 46 1033.4
20260904210355 100 186 0.0 2.0 0.00 0.00 0.00 47 1033.5
20260904205852 99 163 3.0 3.0 0.00 0.00 0.00 48 1033.5
20260904205347 101 203 0.0 2.0 0.00 0.00 0.00 48 1033.6
20260904204844 101 200 1.0 2.0 0.00 0.00 0.00 46 1033.5
20260904204339 101 348 1.0 2.0 0.00 0.00 0.00 46 1033.7
20260904203836 101 180 2.0 2.0 0.00 0.00 0.00 45 1033.8
20260904203332 101 176 2.0 2.0 0.00 0.00 0.00 45 1033.5
20260904202827 101 240 0.0 2.0 0.00 0.00 0.00 45 1033.6
20260904202323 98 187 1.0 2.0 0.00 0.00 0.00 46 1033.7
20260904201819 98 0 0.0 4.0 0.00 0.00 0.00 46 1033.7
20260904201319 101 7 0.0 3.0 0.00 0.00 0.00 45 1033.9
20260904200814 99 352 0.0 1.0 0.00 0.00 0.00 46 1034.2
20260904200313 99 157 0.0 2.0 0.00 0.00 0.00 46 1034.2
20260904195808 98 342 0.0 2.0 0.00 0.00 0.00 45 1034.4
20260904195306 99 0 0.0 2.0 0.00 0.00 0.00 47 1034.4
20260904194801 98 0 3.0 3.0 0.00 0.00 0.00 48 1034.5
20260904194300 99 345 1.0 2.0 0.00 0.00 0.00 48 1034.7
20260904193755 97 339 2.0 3.0 0.00 0.00 0.00 50 1034.9
20260904193251 98 0 3.0 4.0 0.00 0.00 0.00 48 1035.0
20260904192746 100 90 0.0 3.0 0.00 0.00 0.00 47 1035.0
20260904192241 99 53 3.0 4.0 0.00 0.00 0.00 49 1035.3
20260904191738 96 23 0.0 2.0 0.00 0.00 0.00 53 1035.1
20260904191234 96 166 3.0 3.0 0.00 0.00 0.00 55 1035.0
20260904190730 98 180 0.0 2.0 0.00 0.00 0.00 55 1035.3
20260904190226 95 180 0.0 3.0 0.00 0.00 0.00 58 1035.2
20260904185722 95 166 2.0 3.0 0.00 0.00 0.00 58 1035.3
20260904185216 92 180 2.0 3.0 0.00 0.00 0.00 60 1035.6
20260904184715 91 163 3.0 3.0 0.00 0.00 0.00 62 1035.5
20260904184211 93 188 1.0 2.0 0.00 0.00 0.00 59 1035.5
20260904183706 93 194 0.0 2.0 0.00 0.00 0.00 59 1035.7
20260904183201 93 190 2.0 2.0 0.00 0.00 0.00 62 1035.9
20260904182657 93 180 2.0 3.0 0.00 0.00 0.00 62 1036.0
20260904182151 93 165 0.0 3.0 0.00 0.00 0.00 59 1035.8
20260904181648 93 99 0.0 3.0 0.00 0.00 0.00 60 1036.0
20260904181147 93 152 2.0 2.0 0.00 0.00 0.00 59 1036.0
20260904180642 93 180 0.0 3.0 0.00 0.00 0.00 60 1035.7
20260904180137 93 162 2.0 2.0 0.00 0.00 0.00 59 1035.8
20260904175636 92 188 0.0 3.0 0.00 0.00 0.00 59 1035.9
20260904175135 92 156 3.0 3.0 0.00 0.00 0.00 60 1036.1
20260904174630 92 180 0.0 2.0 0.00 0.00 0.00 61 1036.4
20260904174126 92 173 1.0 3.0 0.00 0.00 0.00 62 1036.4
20260904173621 91 150 2.0 2.0 0.00 0.00 0.00 62 1036.4
20260904173117 90 195 0.0 0.0 0.00 0.00 0.00 65 1036.7
20260904172613 90 195 0.0 2.0 0.00 0.00 0.00 65 1036.6
20260904172112 91 154 2.0 2.0 0.00 0.00 0.00 65 1036.8
20260904171607 90 180 2.0 2.0 0.00 0.00 0.00 64 1036.8
20260904171103 91 198 2.0 2.0 0.00 0.00 0.00 65 1036.9
20260904170558 91 114 0.0 1.0 0.00 0.00 0.00 65 1037.0
20260904170055 91 164 0.0 0.0 0.00 0.00 0.00 65 1036.9
20260904165553 89 188 0.0 1.0 0.00 0.00 0.00 66 1036.9
20260904165052 89 99 0.0 0.0 0.00 0.00 0.00 67 1036.9
20260904164547 89 180 0.0 1.0 0.00 0.00 0.00 67 1037.1
20260904164044 88 90 1.0 3.0 0.00 0.00 0.00 67 1037.1
20260904163543 88 175 2.0 2.0 0.00 0.00 0.00 68 1037.1
20260904163039 88 187 0.0 2.0 0.00 0.00 0.00 70 1037.2
20260904162538 87 148 0.0 2.0 0.00 0.00 0.00 70 1037.2
20260904162034 87 175 0.0 2.0 0.00 0.00 0.00 69 1037.3
20260904161529 88 45 0.0 0.0 0.00 0.00 0.00 68 1037.3
20260904161024 88 45 0.0 2.0 0.00 0.00 0.00 68 1037.3
20260904160519 87 23 1.0 3.0 0.00 0.00 0.00 70 1037.3
20260904160015 87 15 2.0 4.0 0.00 0.00 0.00 69 1037.4
20260904155509 87 14 1.0 2.0 0.00 0.00 0.00 71 1037.2
20260904155008 86 7 0.0 0.0 0.00 0.00 0.00 73 1037.3
20260904154502 86 7 0.0 0.0 0.00 0.00 0.00 72 1037.5
20260904153957 85 7 0.0 0.0 0.00 0.00 0.00 75 1037.1
20260904153452 85 7 0.0 0.0 0.00 0.00 0.00 75 1037.2
20260904152949 84 30 2.0 2.0 0.00 0.00 0.00 75 1037.5
20260904152444 84 157 0.0 2.0 0.00 0.00 0.00 76 1037.4
20260904151943 83 166 0.0 0.0 0.00 0.00 0.00 77 1037.3
20260904151439 83 173 0.0 1.0 0.00 0.00 0.00 77 1037.5
20260904150933 83 172 0.0 0.0 0.00 0.00 0.00 76 1037.3
20260904150428 83 180 0.0 1.0 0.00 0.00 0.00 77 1037.4
20260904145926 82 187 0.0 1.0 0.00 0.00 0.00 79 1037.4
20260904145423 82 195 0.0 1.0 0.00 0.00 0.00 80 1037.5
20260904144918 82 0 0.0 2.0 0.00 0.00 0.00 79 1037.3
20260904144414 81 173 0.0 1.0 0.00 0.00 0.00 82 1037.4
20260904143909 81 188 0.0 2.0 0.00 0.00 0.00 82 1037.1
20260904143406 81 166 0.0 0.0 0.00 0.00 0.00 82 1037.3
20260904142902 80 145 1.0 1.0 0.00 0.00 0.00 82 1037.3
20260904142357 80 165 0.0 0.0 0.00 0.00 0.00 82 1037.3
20260904141857 80 154 1.0 2.0 0.00 0.00 0.00 83 1037.3
20260904141352 80 172 0.0 0.0 0.00 0.00 0.00 83 1037.3
20260904140849 79 165 0.0 1.0 0.00 0.00 0.00 83 1037.3
20260904140343 79 174 0.0 1.0 0.00 0.00 0.00 84 1037.2
20260904135843 79 157 0.0 1.0 0.00 0.00 0.00 84 1037.3
20260904135337 79 166 0.0 1.0 0.00 0.00 0.00 84 1037.2
20260904134834 79 166 0.0 0.0 0.00 0.00 0.00 84 1037.2
20260904134333 78 166 0.0 0.0 0.00 0.00 0.00 85 1037.1
20260904133828 78 166 0.0 1.0 0.00 0.00 0.00 86 1037.4
20260904133324 78 8 0.0 0.0 0.00 0.00 0.00 86 1037.2
20260904132823 78 8 0.0 0.0 0.00 0.00 0.00 86 1037.4
20260904132319 78 8 0.0 3.0 0.00 0.00 0.00 87 1037.0
20260904131818 78 6 1.0 3.0 0.00 0.00 0.00 87 1037.1
20260904131313 77 14 1.0 3.0 0.00 0.00 0.00 88 1036.9
20260904130808 76 355 2.0 2.0 0.00 0.00 0.00 89 1037.0
20260904130307 76 0 2.0 3.0 0.00 0.00 0.00 89 1037.0
20260904125803 76 12 1.0 2.0 0.00 0.00 0.00 90 1037.0
20260904125259 76 0 0.0 0.0 0.00 0.00 0.00 91 1037.0
20260904124753 75 7 0.0 1.0 0.00 0.00 0.00 92 1037.0
20260904124249 74 352 0.0 2.0 0.00 0.00 0.00 94 1037.0
20260904123749 74 20 0.0 1.0 0.00 0.00 0.00 94 1036.9
20260904123245 74 148 0.0 2.0 0.00 0.00 0.00 93 1037.0
20260904122740 74 172 0.0 0.0 0.00 0.00 0.00 93 1036.9
20260904122239 74 172 0.0 0.0 0.00 0.00 0.00 93 1036.6
20260904121735 73 172 0.0 0.0 0.00 0.00 0.00 94 1036.8
20260904121231 73 172 0.0 0.0 0.00 0.00 0.00 94 1036.8
20260904120727 73 354 0.0 0.0 0.00 0.00 0.00 94 1036.7
20260904120223 73 354 0.0 0.0 0.00 0.00 0.00 94 1036.5
20260904115718 73 351 2.0 2.0 0.00 0.00 0.00 94 1036.6
20260904115217 73 352 0.0 1.0 0.00 0.00 0.00 95 1036.3